www.pogodaiklimat.ru

Погода и климат >> Архив погоды >> Россия >> Алтайский край >> Чарышское


ПОГОДА в Чарышском

  • Прогноз погоды в Чарышском
  • Монитор погоды в Чарышском
  • Климат города

АРХИВ ПОГОДЫ в Чарышском

Время (UTC), дата Ветер
(напр.,м/с)
 
Видим.   Явления Облачность Т
(С)
Тd
(С)
f
(%)
Тe
(С)
Тes
(С)
Комфортность P
(гПа)
Po
(гПа)
Тmin
(С)
Tmax
(С)
R
(мм)
R24
(мм)
S
(см)
03 10.12 штиль 0 50 км 6/0
[Ac As Cs]
-12.7 -15.1 82 -13 -13 1027.4 971.3 -12.9
06 10.12 СЗ 1 50 км 10/0
[Ac und Cs]
-5.1 -11.1 63 -7 -6 1024.4 970.1
09 10.12 СЗ 3 50 км 10/3
[Cb calv Ac As]
-1.2 -9.6 53 -5 -5 1026.0 972.4
12 10.12 З 2
{11}
50 км 10/3 1000 м
[Cb cap Ac und]
+0.5 -5.8 63 -3 -3 1028.2 974.8 +2.2
15 10.12 ЮЗ 3
{15}
50 км {ливн. осадки} ясно -3.3 -12.1 51 -8 -8 1032.0 977.7
18 10.12 СЗ 4 50 км 7 баллов -4.1 -13.5 48 -10 -10 1031.7 977.3
21 10.12 С 1 50 км 3/0
[Ac trans]
-5.9 -13.4 55 -8 -8 1031.6 976.7
00 11.12 ЮВ 1 50 км 8/0
[Ac trans Ci fib]
-12.0 -15.4 76 -14 -14 1032.6 976.5 -12.6 0.0 13
03 11.12 В 1 50 км 10/0
[Ac und]
-12.2 -14.8 81 -14 -14 1031.6 975.5 -12.8
06 11.12 ЮВ 1 50 км 10/0
[Ac und]
-8.7 -13.4 69 -11 -10 1029.0 974.0
09 11.12 штиль 0 50 км 10/0
[Ac und]
-6.4 -12.5 62 -7 -7 1026.6 972.0
12 11.12 штиль 0 50 км 10/3 600 м
[Cb cap Ac und]
-7.5 -12.3 68 -8 -8 1026.2 971.4 -6.4
15 11.12 штиль 0 50 км 10/3 600 м
[Cb cap Ac und]
-7.8 -11.4 75 -8 -8 1025.7 970.9
18 11.12 С 3 10 км слабый ливневой снег 10/10 600 м
[Cb cap]
-7.4 -9.4 86 -13 -13 1027.2 972.4
21 11.12 штиль 0 50 км {ливн. осадки} 3/3 600 м
[Cb cap]
-9.2 -11.3 85 -10 -10 1029.1 973.8
00 12.12 ЮВ 1 50 км {ливн. осадки} 10/0
[Ac trans]
-11.2 -13.3 84 -13 -13 1029.9 974.1 -11.4 1 14
03 12.12 штиль 0 50 км 10/10 1000 м
[Cb cap]
-10.6 -12.7 85 -11 -11 1030.9 975.2
06 12.12 штиль 0 10 км слабый ливневой снег 10/10 600 м
[Cb cap]
-7.8 -11.5 75 -8 -8 1031.3 976.1
09 12.12 СЗ 1 10 км слабый ливневой снег 10/10 600 м
[Cb cap]
-8.9 -12.3 76 -11 -11 1032.5 976.9
12 12.12 СЗ 1 10 км слабый ливневой снег 10/10 600 м
[Cb cap]
-9.8 -12.1 83 -12 -12 1034.4 978.6 -7.7 0.6
15 12.12 СЗ 1 10 км слабый ливневой снег 10/10 600 м
[Cb cap]
-12.3 -14.6 83 -15 -15 1037.3 980.8
18 12.12 штиль 0 50 км {ливн. осадки} 3/3 1000 м
[Cb cap]
-16.1 -18.2 84 -16 -16 1040.3 982.8
21 12.12 штиль 0 50 км ясно -19.1 -21.7 80 -19 -19 1042.0 983.8
00 13.12 ЮВ 1 50 км ясно -21.1 -23.7 80 -24 -24 1044.6 985.8 -21.6 0.4 15
03 13.12 штиль 0 50 км ясно -22.8 -25.7 77 -23 -23 1047.1 987.7 -23.2
06 13.12 штиль 0 50 км ясно -16.8 -20.8 71 -17 -15 1045.7 987.8
09 13.12 штиль 0 50 км ясно -13.2 -18.4 65 -13 -13 1044.9 987.9
12 13.12 ЮВ 1 50 км ясно -19.4 -22.0 80 -22 -22 1049.3 990.7 -12.7
15 13.12 ЮВ 1 50 км ясно -22.2 -25.0 78 -25 -25 1050.3 990.9
18 13.12 штиль 0 50 км ясно -23.9 -26.9 76 -24 -24 1051.1 991.3
21 13.12 штиль 0 50 км ясно -24.5 -27.7 75 -25 -25 1051.5 991.7
00 14.12 штиль 0 50 км ясно -24.6 -27.8 75 -25 -25 1052.5 992.4 -24.8 15
03 14.12 ЮВ 1 50 км ясно -24.3 -27.5 75 -28 -28 1053.5 993.5 -25.3
06 14.12 штиль 0 50 км ясно -17.6 -22.0 68 -18 -16 1051.8 993.5
09 14.12 Ю 1 50 км ясно -13.3 -19.1 62 -16 -15 1050.6 993.2
12 14.12 ЮВ 1 50 км ясно -19.4 -22.0 80 -22 -22 1054.9 996.0 -11.3
15 14.12 ЮВ 1 50 км ясно -22.1 -24.9 78 -25 -25 1054.9 995.3
18 14.12 штиль 0 50 км ясно -23.5 -26.5 76 -24 -24 1054.8 995.0
21 14.12 штиль 0 50 км ясно -24.7 -28.0 74 -25 -25 1054.8 994.6
00 15.12 ЮВ 1 50 км ясно -25.2 -28.5 74 -29 -29 1054.8 994.6 -25.3 15
03 15.12 штиль 0 50 км ясно -25.4 -28.7 74 -25 -25 1055.3 995.0 -25.7
06 15.12 штиль 0 50 км ясно -17.0 -21.1 70 -17 -15 1052.3 994.0
09 15.12 СЗ 2 50 км ясно -15.5 -20.1 68 -21 -20 1051.3 993.5
12 15.12 штиль 0 50 км ясно -20.1 -22.9 78 -20 -20 1053.7 994.7 -13.6
15 15.12 ЮВ 1 50 км {ливн. осадки} ясно -22.1 -24.9 78 -25 -25 1053.2 993.7
18 15.12 штиль 0 50 км {ливн. осадки} ясно -23.5 -26.5 76 -24 -24 1052.6 992.9
21 15.12 штиль 0 50 км ясно -22.8 -25.8 76 -23 -23 1051.3 991.7
00 16.12 ЮВ 1 50 км ясно -22.5 -25.5 76 -26 -26 1050.6 991.2 -23.9 0.0 15
03 16.12 В 1 50 км ясно -22.7 -25.6 77 -26 -26 1050.3 990.7
06 16.12 Ю 1 50 км ясно -15.2 -21.0 61 -18 -16 1047.2 989.6
09 16.12 ЮВ 1 50 км ясно -11.7 -17.8 61 -14 -13 1045.8 988.9
12 16.12 штиль 0 50 км ясно -18.1 -20.8 79 -18 -18 1049.0 990.7 -11.3
15 16.12 штиль 0 50 км ясно -20.2 -22.8 80 -20 -20 1048.9 990.1
18 16.12 ЮВ 1 50 км ясно -21.5 -24.4 77 -25 -25 1048.6 989.6
21 16.12 штиль 0 50 км ясно -21.3 -24.3 77 -21 -21 1048.4 989.4

 

Местоположение метеостанции Чарышское (Алтайский край, Россия): широта 51.38 долгота 83.58 высота над уровнем моря 429 м.

В архиве по умолчанию представлена погода в Чарышском за последнюю неделю. Архивные данные за месяц целиком и за предыдущие месяцы, начиная с января 2011 года, Вы можете получить, выбрав интересующий диапазон дат из раскрывающегося списка и нажав кнопку "Ввод!".

Внимание! Время в таблицах - всемирное. Для получения местного времени необходимо прибавить поправку, которая в Чарышском равна 7 ч.

Смотрите также архив погоды в соседних городах и на ближайших метеорологических станциях:

Погода в Солонешном (Алтайский край, Россия) (59 км)
Погода в Краснощеково (Алтайский край, Россия) (67 км)
Погода в Усть-Калманке (Алтайский край, Россия) (83 км)
Погода в Усть-Кане (Алтай, Россия) (96 км)
Погода в Змеиногорске (Алтайский край, Россия) (101 км)
Погода в Усть-Чарышской Пристани (Алтайский край, Россия) (114 км)
Погода в Белокурихе (Алтайский край, Россия) (117 км)
Погода в Риддере (Восточно-Казахстанская область, Казахстан) (117 км)
Погода в Шипуново (Алтайский край, Россия) (125 км)
Погода в Секисовке (Восточно-Казахстанская область, Казахстан) (136 км)

Пояснения к столбцам:

Ветер - указаны скорость ветра в м/с - средняя за 10 мин, порывы в срок и между сроками (в фигурных скобках) и направление, откуда дует ветер: С - северный, СВ - северо-восточный, В - восточный, ЮВ - юго-восточный, Ю - южный, ЮЗ - юго-западный, З - западный, СЗ - северо-западный.
Видимость - горизонтальная дальность видимости в метрах или километрах. При видимости от 1 до 10 км при отсутствии осадков обычно наблюдается дымка, при ухудшении видимости до 1 км и менее - туман. В сухую погоду видимость может ухудшаться дымом, пылью или мглою.
Явления - указаны атмосферные явления, наблюдавшиеся в срок или в последний час перед сроком; фигурными скобками обозначены явления, наблюдавшиеся между сроками (за 1-3 часа до срока); квадратными скобками обозначены град или гололедные отложения с указанием их диаметра в мм.
Облачность - указаны через наклонную черту общая и нижняя облачность в баллах и высота нижней границы облаков в метрах; квадратными скобками обозначены формы облаков: Ci - перистые, Cs - перисто-слоистые, Cc - перисто-кучевые, Ac - высококучевые, As - высокослоистые, Sc - слоисто-кучевые, Ns - слоисто-дождевые, Cu - кучевые, Cb - кучево-дождевые. Подробнее классификацию облаков см. в Атласе облаков (PDF).
T - Температура воздуха - температура, измеренная на высоте 2 м над землей.
Td - Температура точки росы - температура, при понижении до которой содержащийся в воздухе водяной пар достигнет насыщения.
f - Относительная влажность воздуха - влажноcть воздуха, измеренная на высоте 2 м над землей.
Te - Эффективная температура - температура, которую ощущает одетый по сезону человек в тени. Характеристика душности погоды. При расчете учитывается влияние влажности воздуха и скорости ветра на теплоощущения человека.
Tes - Эффективная температура на солнце - температура, которую ощущает человек, с поправкой на солнечный нагрев. Характеристика знойности погоды. Зависит от высоты солнца над горизонтом, облачности и скорости ветра. Ночью, в пасмурную погоду, а также при ветре 12 м/с и более поправка равна нулю.
P - Атмосферное давление - приведенное к уровню моря атмосферное давление.
Po - Атмосферное давление - измеренное на уровне метеостанции атмосферное давление.
Tmin - Минимальная температура - минимум температуры воздуха на высоте 2 м над землей.
Tmax - Максимальная температура - максимум температуры воздуха на высоте 2 м над землей.
R - Количество осадков - Количество выпавших осадков за период времени, мм. При наведении курсора мыши на число - период времени, за который выпало указанное количество осадков.
R24 - Количество осадков - Количество выпавших осадков за 24 часа, мм.
S - Снежный покров - Высота снежного покрова, см. При наведении курсора мыши на число - состояние снежного покрова и степень покрытия местности в баллах.